This demonstration page uses our WeatherBlox Daily Observations layout. Learn more.

Left ArrowRight Arrow

Hourly Observations for February 24, 2020

Temp ( °F °C ) Dew Point ( °F °C ) Humidity (%) Winds ( mph kmh ) Pressure ( in mb ) Visibility ( mi km ) Precip ( " mm )
12:53 am 00:53 Clear 29 -1.7 27 -2.8 92 92 N N/A 30.05 1018 10 16 N/A
1:53 am 01:53 Clear 29 -1.7 25 -3.9 85 85 N N/A 30.04 1017 10 16 N/A
2:53 am 02:53 Clear 29 -1.7 26 -3.3 89 89 N N/A 30.04 1017 10 16 N/A
3:53 am 03:53 Clear 29 -1.7 25 -3.9 85 85 N N/A 30.01 1016 10 16 N/A
4:33 am 04:33 Mostly Cloudy 30 -1.1 28 -2.2 92 92 N N/A 30.04 1017 10 16 N/A
4:53 am 04:53 Cloudy 33 0.6 30 -1.1 89 89 E 5 7 30.00 1016 10 16 N/A
5:34 am 05:34 Mostly Cloudy 37 2.8 30 -1.1 76 76 E 5 7 30.02 1016 10 16 N/A
5:53 am 05:53 Mostly Cloudy 37 2.8 30 -1.1 76 76 E 3 6 30.00 1016 10 16 N/A
6:21 am 06:21 Cloudy 38 3.3 30 -1.1 73 73 E 5 7 30.03 1017 10 16 N/A
6:53 am 06:53 Cloudy 38 3.3 31 -0.6 76 76 E 5 7 30.01 1016 10 16 N/A
7:53 am 07:53 Cloudy 40 4.4 33 0.6 77 77 N N/A 30.02 1017 10 16 N/A
8:45 am 08:45 Cloudy with Light Rain 41 5 34 1.1 76 76 N N/A 30.03 1017 8 13 0.00 0.00
8:53 am 08:53 Cloudy with Light Rain 40 4.4 35 1.7 83 83 N N/A 30.03 1017 7 11 0.00 0.00
9:03 am 09:03 Cloudy with Light Rain 40 4.4 36 2.2 86 86 N N/A 30.03 1017 6 10 0.01 0.25
9:53 am 09:53 Cloudy with Light Rain 41 5 38 3.3 89 89 E 3 6 30.02 1017 10 16 0.02 0.51
10:15 am 10:15 Cloudy with Light Rain 41 5 38 3.3 89 89 ESE 3 6 30.02 1017 8 13 0.01 0.25
10:53 am 10:53 Cloudy with Light Rain 42 5.6 40 4.4 92 92 N N/A 30.00 1016 6 10 0.03 0.76
11:12 am 11:12 Cloudy with Light Rain 42 5.6 40 4.4 92 92 VRB 5 7 30.00 1016 4 6 0.02 0.51
11:37 am 11:37 Cloudy with Light Rain 43 6.1 40 4.4 89 89 N N/A 29.99 1016 7 11 0.04 1.02
11:53 am 11:53 Cloudy with Light Rain 43 6.1 41 5 93 93 N N/A 29.97 1015 10 16 0.05 1.27
12:09 pm 12:09 Cloudy 43 6.1 41 5 93 93 N N/A 29.97 1015 10 16 0.00 0.00
12:18 pm 12:18 Cloudy 43 6.1 40 4.4 89 89 N N/A 29.97 1015 10 16 0.00 0.00
12:29 pm 12:29 Cloudy 43 6.1 40 4.4 89 89 S 5 7 29.98 1015 10 16 0.00 0.00
12:53 pm 12:53 Cloudy 43 6.1 40 4.4 89 89 SE 3 6 29.95 1014 10 16 0.00 0.00
1:30 pm 13:30 Cloudy 44 6.7 41 5 89 89 VRB 5 7 29.92 1013 8 13 0.00 0.00
1:41 pm 13:41 Cloudy 44 6.7 41 5 89 89 SSE 3 6 29.92 1013 10 16 0.00 0.00
1:53 pm 13:53 Cloudy 44 6.7 41 5 89 89 SSE 6 9 29.91 1013 10 16 0.00 0.00
2:07 pm 14:07 Cloudy 44 6.7 41 5 89 89 SSE 5 7 29.91 1013 10 16 N/A
2:26 pm 14:26 Cloudy 44 6.7 41 5 89 89 VRB 6 9 29.90 1012 10 16 N/A
2:34 pm 14:34 Cloudy 45 7.2 41 5 86 86 VRB 6 9 29.89 1012 10 16 N/A
2:53 pm 14:53 Cloudy 45 7.2 41 5 86 86 VRB 5 7 29.87 1011 10 16 N/A
3:53 pm 15:53 Cloudy with Light Rain 45 7.2 40 4.4 83 83 SE 5 7 29.85 1011 5 8 0.00 0.00
4:12 pm 16:12 Cloudy with Rain 44 6.7 41 5 89 89 ESE 6 9 29.85 1011 3 4 0.02 0.51
4:14 pm 16:14 Cloudy with Light Rain 43 6.1 41 5 93 93 ESE 6 9 29.84 1010 3 5 0.02 0.51
4:30 pm 16:30 Cloudy with Light Rain 43 6.1 41 5 93 93 ESE 7 11 29.84 1010 6 10 0.03 0.76
4:53 pm 16:53 Cloudy with Light Rain 43 6.1 41 5 93 93 ESE 8 13 29.82 1010 6 10 0.05 1.27
5:41 pm 17:41 Cloudy with Light Rain 43 6.1 41 5 93 93 E 7 11 29.82 1010 4 6 0.11 2.79
5:53 pm 17:53 Cloudy with Light Rain 43 6.1 41 5 93 93 ESE 6 9 29.81 1010 4 6 0.12 3.05
6:06 pm 18:06 Cloudy with Light Rain 43 6.1 41 5 93 93 ESE 5 7 29.82 1010 2 3 0.02 0.51
6:26 pm 18:26 Cloudy with Light Rain 43 6.1 41 5 93 93 N N/A 29.82 1010 4 6 0.05 1.27
6:53 pm 18:53 Cloudy with Rain 42 5.6 41 5 96 96 E 6 9 29.81 1009 4 6 0.09 2.29
7:42 pm 19:42 Cloudy with Light Rain 42 5.6 42 5.6 100 100 ENE 6 9 29.82 1010 4 6 0.06 1.52
7:53 pm 19:53 Cloudy with Light Rain 43 6.1 42 5.6 97 97 E 6 9 29.80 1009 6 10 0.06 1.52
8:02 pm 20:02 Cloudy 43 6.1 42 5.6 97 97 E 3 6 29.82 1010 7 11 0.00 0.00
8:23 pm 20:23 Cloudy with Light Rain 42 5.6 42 5.6 100 100 E 6 9 29.80 1009 3 4 0.01 0.25
8:49 pm 20:49 Cloudy with Mist and Fog 43 6 43 6 100 100 E 5 7 29.80 1009 3 5 0.01 0.25
8:53 pm 20:53 Cloudy with Mist and Fog 42 5.6 42 5.6 100 100 E 5 7 29.78 1009 3 5 0.01 0.25
9:53 pm 21:53 Cloudy with Mist and Fog 42 5.6 42 5.6 100 100 E 6 9 29.78 1008 3 5 N/A
10:53 pm 22:53 Cloudy with Light Rain 43 6.1 42 5.6 97 97 E 5 7 29.76 1008 10 16 0.01 0.25
11:53 pm 23:53 Cloudy with Mist and Fog 43 6.1 42 5.6 97 97 E 6 9 29.75 1008 3 5 0.00 0.00

Powered by AerisWeather